TSC815 CYYZ-EGCC

Flight info

Callsign TSC815
Flight time N/A
Altitude 33000
Route SEDOG6 BOBSU DCT BAREE N647B RIKAL/M079F350 DCT 53N050W 54N040W 55N030W 56N020W DCT PIKIL DCT SOVED/N0448F350 DCT REVNU DCT BOFUM Q37 MALUD
Aircraft A21N/M-SDE3FGHIRWY/LB1

Departure

Time 2026-05-05 18:15
Airport Toronto Pearson International Airport (CYYZ)

Arrival

Time N/A
Airport Manchester Airport (EGCC)
Time Latitude Longitude Altitude Speed Heading
2026-05-05 16:46 43.68304 -79.62117 567 ft 0 kts 112°
2026-05-05 18:06 43.68304 -79.62118 561 ft 1 kts 112°
2026-05-05 18:07 43.68312 -79.62144 561 ft 3 kts 112°
2026-05-05 18:07 43.68320 -79.62172 564 ft 3 kts 112°
2026-05-05 18:07 43.68330 -79.62200 563 ft 3 kts 130°
2026-05-05 18:07 43.68345 -79.62217 561 ft 3 kts 172°
2026-05-05 18:08 43.68361 -79.62213 568 ft 1 kts 225°
2026-05-05 18:09 43.68334 -79.62253 563 ft 12 kts 230°
2026-05-05 18:10 43.68284 -79.62376 568 ft 16 kts 243°
2026-05-05 18:10 43.68285 -79.62501 564 ft 14 kts 317°
2026-05-05 18:10 43.68352 -79.62590 573 ft 13 kts 316°
2026-05-05 18:10 43.68418 -79.62677 564 ft 14 kts 316°
2026-05-05 18:11 43.68490 -79.62772 564 ft 15 kts 316°
2026-05-05 18:11 43.68565 -79.62870 568 ft 15 kts 317°
2026-05-05 18:11 43.68642 -79.62969 571 ft 15 kts 317°
2026-05-05 18:11 43.68721 -79.63070 561 ft 15 kts 316°
2026-05-05 18:12 43.68797 -79.63168 561 ft 15 kts 319°
2026-05-05 18:12 43.68877 -79.63262 562 ft 15 kts 316°
2026-05-05 18:12 43.68943 -79.63354 569 ft 12 kts 315°
2026-05-05 18:12 43.69003 -79.63434 571 ft 12 kts 316°
2026-05-05 18:13 43.69065 -79.63515 564 ft 12 kts 316°
2026-05-05 18:13 43.69134 -79.63507 567 ft 11 kts 41°
2026-05-05 18:13 43.69197 -79.63435 572 ft 14 kts 24°
2026-05-05 18:13 43.69292 -79.63422 570 ft 14 kts
2026-05-05 18:14 43.69380 -79.63449 561 ft 13 kts 319°
2026-05-05 18:14 43.69400 -79.63529 564 ft 8 kts 228°
2026-05-05 18:14 43.69346 -79.63606 564 ft 22 kts 226°
2026-05-05 18:14 43.69064 -79.64016 566 ft 93 kts 226°
2026-05-05 18:15 43.68472 -79.64879 568 ft 151 kts 227°
2026-05-05 18:15 43.67622 -79.66060 678 ft 186 kts 226°
2026-05-05 18:15 43.66789 -79.67317 1561 ft 174 kts 238°
2026-05-05 18:15 43.66085 -79.68655 2210 ft 170 kts 238°
2026-05-05 18:16 43.65615 -79.69578 2400 ft 177 kts 238°
2026-05-05 18:16 43.64916 -79.70969 2767 ft 180 kts 239°
2026-05-05 18:16 43.64232 -79.72459 3005 ft 189 kts 254°
2026-05-05 18:16 43.64195 -79.74272 3139 ft 199 kts 288°
2026-05-05 18:17 43.64825 -79.76072 3283 ft 218 kts 298°
2026-05-05 18:17 43.65606 -79.77877 3787 ft 220 kts 299°
2026-05-05 18:17 43.66449 -79.79771 4029 ft 240 kts 300°
2026-05-05 18:17 43.67355 -79.81756 4567 ft 247 kts 302°
2026-05-05 18:18 43.68620 -79.83409 5186 ft 258 kts 327°
2026-05-05 18:18 43.70325 -79.84306 5786 ft 266 kts 337°
2026-05-05 18:18 43.72110 -79.85060 6407 ft 270 kts 340°
2026-05-05 18:18 43.73991 -79.85318 6981 ft 283 kts 360°
2026-05-05 18:19 43.75929 -79.84627 7524 ft 297 kts 21°
2026-05-05 18:19 43.77682 -79.83031 8092 ft 306 kts 34°
2026-05-05 18:19 43.79386 -79.81225 8640 ft 310 kts 34°
2026-05-05 18:19 43.81111 -79.79395 9174 ft 314 kts 34°
2026-05-05 18:20 43.82858 -79.77547 9662 ft 320 kts 34°
2026-05-05 18:20 43.84654 -79.75651 9970 ft 333 kts 34°
2026-05-05 18:20 43.86549 -79.73659 10106 ft 351 kts 33°
2026-05-05 18:20 43.88551 -79.71572 10239 ft 370 kts 33°
2026-05-05 18:21 43.90659 -79.69377 10373 ft 388 kts 34°
2026-05-05 18:21 43.92837 -79.67104 10489 ft 405 kts 34°
2026-05-05 18:21 43.95121 -79.64702 10698 ft 417 kts 34°
2026-05-05 18:21 43.97411 -79.62272 11486 ft 412 kts 34°
2026-05-05 18:22 43.99718 -79.59875 11973 ft 416 kts 30°
2026-05-05 18:22 44.02254 -79.57913 12331 ft 419 kts 18°
2026-05-05 18:22 44.04993 -79.56507 12769 ft 421 kts 13°
2026-05-05 18:22 44.07776 -79.55177 13295 ft 424 kts 13°
2026-05-05 18:23 44.10569 -79.53834 13832 ft 426 kts 13°
2026-05-05 18:23 44.13378 -79.52474 14350 ft 428 kts 13°
2026-05-05 18:23 44.16193 -79.51104 14850 ft 430 kts 13°
2026-05-05 18:23 44.19026 -79.49723 15334 ft 432 kts 13°
2026-05-05 18:24 44.21871 -79.48336 15815 ft 435 kts 13°
2026-05-05 18:24 44.24731 -79.46936 16286 ft 437 kts 13°
2026-05-05 18:24 44.27613 -79.45525 16732 ft 439 kts 13°
2026-05-05 18:24 44.30507 -79.44111 17173 ft 441 kts 13°
2026-05-05 18:25 44.33413 -79.42690 17588 ft 444 kts 13°
2026-05-05 18:25 44.35344 -79.41742 17864 ft 445 kts 13°
2026-05-05 18:25 44.39215 -79.39555 18401 ft 454 kts 23°
2026-05-05 18:25 44.41963 -79.37303 18783 ft 459 kts 27°
2026-05-05 18:26 44.44698 -79.34987 19161 ft 461 kts 27°
2026-05-05 18:26 44.47414 -79.32690 19497 ft 464 kts 27°
2026-05-05 18:26 44.50191 -79.30351 19841 ft 467 kts 26°
2026-05-05 18:26 44.52981 -79.28006 20177 ft 470 kts 26°
2026-05-05 18:27 44.55792 -79.25645 20523 ft 472 kts 26°
2026-05-05 18:27 44.58612 -79.23266 20874 ft 474 kts 26°
2026-05-05 18:27 44.61450 -79.20860 21186 ft 477 kts 27°
2026-05-05 18:27 44.64301 -79.18440 21494 ft 480 kts 27°
2026-05-05 18:28 44.70046 -79.13552 22104 ft 485 kts 27°
2026-05-05 18:28 44.72948 -79.11085 22414 ft 488 kts 27°
2026-05-05 18:28 44.75864 -79.08609 22729 ft 490 kts 27°
2026-05-05 18:29 44.78788 -79.06119 23009 ft 493 kts 27°
2026-05-05 18:29 44.81696 -79.03638 23301 ft 496 kts 27°
2026-05-05 18:29 44.84652 -79.01109 23585 ft 498 kts 27°
2026-05-05 18:29 44.87620 -78.98565 23871 ft 500 kts 27°
2026-05-05 18:30 44.90599 -78.96004 24123 ft 503 kts 27°
2026-05-05 18:30 44.93587 -78.93406 24392 ft 506 kts 27°
2026-05-05 18:30 44.96580 -78.90785 24656 ft 508 kts 27°
2026-05-05 18:30 44.99586 -78.88144 24927 ft 510 kts 27°
2026-05-05 18:31 45.02611 -78.85486 25189 ft 512 kts 27°
2026-05-05 18:31 45.05640 -78.82823 25445 ft 513 kts 27°
2026-05-05 18:31 45.08680 -78.80142 25680 ft 516 kts 27°
2026-05-05 18:31 45.11727 -78.77460 25941 ft 517 kts 26°
2026-05-05 18:32 45.14789 -78.74768 26180 ft 519 kts 26°
2026-05-05 18:32 45.17868 -78.72054 26402 ft 522 kts 26°
2026-05-05 18:32 45.20951 -78.69331 26643 ft 523 kts 26°
2026-05-05 18:32 45.24046 -78.66593 26873 ft 525 kts 26°
2026-05-05 18:33 45.27152 -78.63840 27085 ft 527 kts 26°
2026-05-05 18:33 45.30275 -78.61072 27271 ft 529 kts 26°
2026-05-05 18:33 45.33365 -78.58330 27462 ft 531 kts 26°
2026-05-05 18:33 45.36506 -78.55541 27674 ft 533 kts 26°
2026-05-05 18:34 45.39693 -78.52706 27888 ft 534 kts 26°
2026-05-05 18:34 45.42819 -78.49919 28057 ft 537 kts 26°
2026-05-05 18:34 45.45987 -78.47094 28252 ft 538 kts 26°
2026-05-05 18:34 45.49090 -78.44059 28443 ft 546 kts 34°
2026-05-05 18:35 45.51900 -78.40358 28604 ft 554 kts 44°
2026-05-05 18:35 45.54302 -78.36045 28857 ft 558 kts 55°
2026-05-05 18:35 45.56255 -78.31255 29087 ft 559 kts 64°
2026-05-05 18:35 45.57959 -78.26271 29315 ft 560 kts 64°
2026-05-05 18:36 45.59672 -78.21265 29521 ft 560 kts 64°
2026-05-05 18:36 45.61384 -78.16255 29754 ft 561 kts 64°
2026-05-05 18:36 45.63087 -78.11245 29985 ft 561 kts 64°
2026-05-05 18:36 45.64790 -78.06217 30207 ft 561 kts 64°
2026-05-05 18:37 45.66486 -78.01192 30428 ft 562 kts 64°
2026-05-05 18:37 45.68182 -77.96158 30646 ft 562 kts 64°
2026-05-05 18:37 45.69852 -77.91190 30933 ft 560 kts 64°
2026-05-05 18:37 45.71535 -77.86174 31232 ft 559 kts 64°
2026-05-05 18:38 45.73212 -77.81168 31493 ft 558 kts 64°
2026-05-05 18:38 45.74886 -77.76164 31749 ft 557 kts 64°
2026-05-05 18:38 45.76559 -77.71158 32028 ft 555 kts 64°
2026-05-05 18:38 45.78224 -77.66175 32304 ft 554 kts 64°
2026-05-05 18:39 45.79886 -77.61192 32570 ft 553 kts 64°
2026-05-05 18:39 45.81534 -77.56231 32649 ft 550 kts 64°
2026-05-05 18:39 45.84799 -77.46362 32654 ft 546 kts 64°
2026-05-05 18:40 45.88036 -77.36539 32653 ft 543 kts 64°
2026-05-05 18:40 45.91241 -77.26822 32655 ft 541 kts 64°
2026-05-05 18:41 45.94441 -77.17044 32654 ft 539 kts 64°
2026-05-05 18:41 45.97618 -77.07295 32664 ft 538 kts 64°
2026-05-05 18:42 46.00778 -76.97554 32671 ft 536 kts 64°
2026-05-05 18:42 46.03934 -76.87816 32641 ft 537 kts 65°
2026-05-05 18:43 46.07082 -76.78060 32638 ft 537 kts 65°
2026-05-05 18:43 46.10195 -76.68352 32645 ft 536 kts 65°
2026-05-05 18:44 46.13326 -76.58585 32650 ft 535 kts 65°
2026-05-05 18:44 46.16445 -76.48828 32658 ft 534 kts 65°
2026-05-05 18:45 46.19543 -76.39080 32655 ft 533 kts 65°
2026-05-05 18:45 46.22598 -76.29427 32657 ft 531 kts 65°
2026-05-05 18:46 46.25657 -76.19728 32653 ft 530 kts 64°
2026-05-05 18:46 46.28702 -76.10030 32648 ft 529 kts 65°
2026-05-05 18:47 46.31737 -76.00335 32644 ft 529 kts 65°
2026-05-05 18:47 46.34763 -75.90649 32637 ft 528 kts 65°
2026-05-05 18:48 46.37781 -75.80945 32633 ft 528 kts 65°
2026-05-05 18:48 46.40763 -75.71302 32615 ft 528 kts 65°
2026-05-05 18:49 46.43753 -75.61581 32618 ft 528 kts 65°
2026-05-05 18:49 46.46740 -75.51854 32615 ft 528 kts 65°
2026-05-05 18:50 46.49719 -75.42113 32610 ft 528 kts 66°
2026-05-05 18:50 46.52699 -75.32346 32601 ft 529 kts 66°
2026-05-05 18:51 46.55670 -75.22573 32603 ft 529 kts 66°
2026-05-05 18:51 46.58629 -75.12775 32599 ft 529 kts 66°
2026-05-05 18:52 46.61558 -75.03033 32600 ft 529 kts 66°
2026-05-05 18:52 46.64499 -74.93223 32599 ft 529 kts 66°
2026-05-05 18:53 46.67436 -74.83406 32603 ft 528 kts 66°
2026-05-05 18:53 46.70359 -74.73592 32607 ft 528 kts 67°
2026-05-05 18:54 46.73262 -74.63799 32606 ft 527 kts 67°
2026-05-05 18:54 46.76147 -74.54038 32604 ft 526 kts 67°
2026-05-05 18:55 46.79054 -74.44174 32596 ft 525 kts 67°
2026-05-05 18:55 46.81911 -74.34414 32587 ft 525 kts 67°
2026-05-05 18:56 46.84766 -74.24601 32588 ft 525 kts 67°
2026-05-05 18:56 46.87615 -74.14773 32585 ft 524 kts 67°
2026-05-05 18:57 46.90457 -74.04969 32567 ft 524 kts 67°
2026-05-05 18:57 46.93295 -73.95136 32575 ft 525 kts 68°
2026-05-05 18:58 46.96119 -73.85290 32580 ft 524 kts 68°
2026-05-05 18:58 46.98927 -73.75438 32580 ft 524 kts 68°
2026-05-05 18:59 47.01729 -73.65588 32577 ft 523 kts 68°
2026-05-05 18:59 47.04528 -73.55730 32571 ft 524 kts 68°
2026-05-05 19:00 47.07318 -73.45868 32573 ft 523 kts 69°
2026-05-05 19:00 47.10069 -73.36068 32569 ft 523 kts 69°
2026-05-05 19:01 47.12832 -73.26199 32567 ft 523 kts 69°
2026-05-05 19:01 47.15597 -73.16310 32565 ft 523 kts 69°
2026-05-05 19:02 47.18346 -73.06412 32562 ft 522 kts 69°
2026-05-05 19:02 47.21080 -72.96509 32570 ft 522 kts 69°
2026-05-05 19:03 47.23797 -72.86676 32570 ft 522 kts 69°
2026-05-05 19:03 47.26514 -72.76772 32569 ft 522 kts 69°
2026-05-05 19:04 47.29223 -72.66858 32567 ft 521 kts 70°
2026-05-05 19:04 47.31918 -72.56942 32577 ft 520 kts 70°
2026-05-05 19:05 47.34597 -72.47047 32577 ft 520 kts 70°
2026-05-05 19:05 47.37281 -72.37117 32573 ft 520 kts 70°
2026-05-05 19:06 47.39936 -72.27271 32574 ft 520 kts 70°
2026-05-05 19:06 47.42593 -72.17354 32565 ft 520 kts 70°
2026-05-05 19:07 47.44812 -72.09031 32559 ft 519 kts 70°
2026-05-05 19:07 47.47870 -71.97467 32563 ft 519 kts 70°
2026-05-05 19:08 47.50503 -71.87529 32565 ft 519 kts 71°
2026-05-05 19:08 47.52681 -71.79258 32562 ft 519 kts 71°
2026-05-05 19:09 47.55291 -71.69300 32553 ft 518 kts 71°
2026-05-05 19:09 47.57889 -71.59339 32549 ft 518 kts 71°
2026-05-05 19:10 47.60473 -71.49373 32554 ft 518 kts 71°
2026-05-05 19:10 47.63065 -71.39386 32549 ft 518 kts 71°
2026-05-05 19:11 47.65636 -71.29406 32552 ft 518 kts 71°
2026-05-05 19:11 47.68200 -71.19411 32545 ft 518 kts 71°
2026-05-05 19:12 47.70755 -71.09412 32537 ft 517 kts 71°
2026-05-05 19:12 47.73288 -70.99473 32527 ft 517 kts 71°
2026-05-05 19:13 47.75822 -70.89454 32521 ft 517 kts 71°
2026-05-05 19:13 47.78347 -70.79436 32511 ft 517 kts 70°
2026-05-05 19:14 47.80868 -70.69381 32586 ft 521 kts 71°
2026-05-05 19:14 47.82132 -70.64321 32708 ft 524 kts 70°
2026-05-05 19:14 47.83400 -70.59234 32917 ft 524 kts 71°
2026-05-05 19:15 47.84652 -70.54202 33108 ft 525 kts 71°
2026-05-05 19:15 47.85916 -70.49112 33332 ft 524 kts 70°
2026-05-05 19:15 47.87175 -70.44022 33571 ft 524 kts 71°
2026-05-05 19:15 47.88432 -70.38914 33750 ft 524 kts 71°
2026-05-05 19:16 47.89691 -70.33817 33962 ft 524 kts 70°
2026-05-05 19:16 47.90948 -70.28734 34159 ft 523 kts 70°
2026-05-05 19:16 47.92206 -70.23638 34355 ft 523 kts 70°
2026-05-05 19:16 47.93458 -70.18547 34496 ft 523 kts 70°
2026-05-05 19:17 47.95946 -70.08358 34523 ft 522 kts 71°
2026-05-05 19:17 47.98418 -69.98161 34526 ft 523 kts 71°
2026-05-05 19:18 48.00870 -69.88023 34533 ft 522 kts 71°
2026-05-05 19:18 48.03331 -69.77813 34531 ft 522 kts 71°
2026-05-05 19:19 48.05785 -69.67598 34529 ft 522 kts 71°
2026-05-05 19:19 48.08233 -69.57378 34536 ft 521 kts 71°
2026-05-05 19:20 48.10653 -69.47174 34536 ft 520 kts 71°
2026-05-05 19:20 48.13058 -69.36961 34537 ft 520 kts 71°
2026-05-05 19:21 48.15719 -69.26899 34541 ft 519 kts 63°
2026-05-05 19:21 48.18949 -69.17231 34540 ft 519 kts 63°
2026-05-05 19:22 48.22153 -69.07610 34543 ft 518 kts 63°
2026-05-05 19:22 48.25363 -68.97918 34550 ft 518 kts 63°
2026-05-05 19:23 48.28551 -68.88223 34552 ft 517 kts 63°
2026-05-05 19:23 48.31726 -68.78546 34553 ft 516 kts 63°
2026-05-05 19:24 48.34895 -68.68870 34547 ft 515 kts 63°
2026-05-05 19:24 48.38042 -68.59195 34548 ft 514 kts 63°
2026-05-05 19:25 48.41159 -68.49586 34547 ft 514 kts 63°
2026-05-05 19:25 48.44278 -68.39920 34538 ft 513 kts 62°
2026-05-05 19:26 48.47387 -68.30272 34537 ft 511 kts 63°
2026-05-05 19:26 48.50480 -68.20610 34534 ft 511 kts 63°
2026-05-05 19:27 48.53572 -68.10932 34529 ft 511 kts 63°
2026-05-05 19:27 48.56653 -68.01267 34524 ft 511 kts 63°
2026-05-05 19:28 48.59701 -67.91646 34523 ft 510 kts 63°
2026-05-05 19:28 48.62756 -67.81968 34527 ft 510 kts 63°
2026-05-05 19:29 48.65809 -67.72275 34519 ft 510 kts 63°
2026-05-05 19:29 48.68852 -67.62568 34522 ft 510 kts 63°
2026-05-05 19:30 48.71861 -67.52911 34528 ft 510 kts 63°
2026-05-05 19:30 48.74885 -67.43170 34529 ft 511 kts 63°
2026-05-05 19:31 48.77900 -67.33419 34530 ft 511 kts 63°
2026-05-05 19:31 48.80913 -67.23659 34533 ft 511 kts 63°
2026-05-05 19:32 48.83930 -67.13869 34536 ft 511 kts 63°
2026-05-05 19:32 48.86930 -67.04065 34537 ft 511 kts 63°
2026-05-05 19:33 48.89915 -66.94258 34540 ft 511 kts 63°
2026-05-05 19:33 48.92900 -66.84438 34538 ft 511 kts 63°
2026-05-05 19:34 48.95849 -66.74681 34545 ft 511 kts 63°
2026-05-05 19:35 49.00288 -66.59914 34553 ft 511 kts 63°
2026-05-05 19:35 49.03246 -66.50054 34551 ft 511 kts 63°
2026-05-05 19:36 49.06194 -66.40182 34556 ft 511 kts 63°
2026-05-05 19:36 49.09126 -66.30292 34555 ft 511 kts 63°
2026-05-05 19:37 49.12048 -66.20397 34556 ft 512 kts 63°
2026-05-05 19:37 49.14967 -66.10494 34564 ft 511 kts 63°
2026-05-05 19:38 49.17886 -66.00552 34578 ft 512 kts 63°
2026-05-05 19:38 49.20765 -65.90650 34593 ft 512 kts 63°
2026-05-05 19:39 49.23657 -65.80694 34595 ft 512 kts 63°
2026-05-05 19:39 49.26545 -65.70734 34602 ft 512 kts 63°
2026-05-05 19:40 49.29425 -65.60765 34605 ft 512 kts 63°
2026-05-05 19:40 49.32298 -65.50787 34612 ft 511 kts 63°
2026-05-05 19:41 49.35158 -65.40804 34614 ft 511 kts 63°
2026-05-05 19:41 49.38007 -65.30803 34620 ft 511 kts 63°
2026-05-05 19:42 49.40831 -65.20864 34631 ft 511 kts 63°
2026-05-05 19:42 49.43661 -65.10862 34635 ft 510 kts 63°
2026-05-05 19:43 49.46479 -65.00857 34639 ft 510 kts 63°
2026-05-05 19:43 49.49279 -64.90839 34641 ft 509 kts 63°
2026-05-05 19:44 49.52060 -64.80833 34641 ft 508 kts 63°
2026-05-05 19:44 49.54840 -64.70834 34647 ft 507 kts 63°
2026-05-05 19:45 49.57585 -64.60916 34648 ft 506 kts 63°
2026-05-05 19:45 49.60335 -64.50920 34651 ft 506 kts 63°
2026-05-05 19:46 49.63081 -64.40922 34662 ft 506 kts 62°
2026-05-05 19:46 49.65821 -64.30903 34670 ft 506 kts 63°
2026-05-05 19:47 49.68545 -64.20894 34674 ft 505 kts 62°
2026-05-05 19:47 49.71260 -64.10897 34673 ft 504 kts 63°
2026-05-05 19:48 49.73962 -64.00890 34669 ft 504 kts 63°
2026-05-05 19:48 49.76626 -63.90940 34675 ft 503 kts 63°
2026-05-05 19:49 49.79301 -63.80938 34671 ft 503 kts 63°
2026-05-05 19:49 49.81967 -63.70922 34675 ft 503 kts 63°
2026-05-05 19:50 49.84617 -63.60897 34683 ft 503 kts 63°
2026-05-05 19:50 49.87262 -63.50878 34692 ft 502 kts 63°
2026-05-05 19:51 49.89901 -63.40833 34705 ft 502 kts 63°
2026-05-05 19:51 49.92501 -63.30860 34709 ft 502 kts 63°
2026-05-05 19:52 49.95116 -63.20829 34710 ft 501 kts 63°
2026-05-05 19:52 49.97724 -63.10809 34710 ft 500 kts 63°
2026-05-05 19:53 50.00324 -63.00784 34713 ft 499 kts 63°
2026-05-05 19:53 50.02892 -62.90791 34717 ft 497 kts 63°
2026-05-05 19:54 50.05424 -62.80861 34721 ft 496 kts 63°
2026-05-05 19:54 50.07970 -62.70887 34718 ft 495 kts 63°
2026-05-05 19:55 50.10504 -62.60937 34721 ft 494 kts 63°
2026-05-05 19:55 50.13016 -62.50992 34733 ft 493 kts 63°
2026-05-05 19:56 50.15514 -62.41040 34734 ft 492 kts 63°
2026-05-05 19:56 50.18002 -62.31095 34733 ft 492 kts 63°
2026-05-05 19:57 50.20465 -62.21205 34717 ft 491 kts 63°
2026-05-05 19:57 50.22936 -62.11259 34724 ft 491 kts 63°
2026-05-05 19:58 50.25391 -62.01328 34732 ft 490 kts 63°
2026-05-05 19:58 50.27841 -61.91359 34732 ft 490 kts 63°
2026-05-05 19:59 50.30281 -61.81413 34728 ft 490 kts 63°
2026-05-05 19:59 50.32709 -61.71451 34725 ft 490 kts 63°
2026-05-05 20:00 50.35123 -61.61486 34718 ft 490 kts 64°
2026-05-05 20:00 50.37127 -61.53185 34724 ft 490 kts 63°
2026-05-05 20:01 50.39530 -61.43191 34736 ft 490 kts 64°
2026-05-05 20:01 50.42313 -61.31560 34717 ft 490 kts 64°
2026-05-05 20:02 50.44313 -61.23173 34718 ft 490 kts 64°
2026-05-05 20:02 50.46689 -61.13140 34724 ft 490 kts 64°
2026-05-05 20:03 50.49049 -61.03162 34718 ft 491 kts 64°
2026-05-05 20:03 50.51417 -60.93103 34721 ft 491 kts 64°
2026-05-05 20:04 50.53773 -60.83010 34724 ft 491 kts 65°
2026-05-05 20:04 50.56119 -60.72921 34718 ft 491 kts 64°
2026-05-05 20:05 50.58461 -60.62824 34725 ft 491 kts 65°
2026-05-05 20:05 50.60782 -60.52718 34721 ft 491 kts 65°
2026-05-05 20:06 50.63104 -60.42615 34720 ft 490 kts 65°
2026-05-05 20:06 50.65399 -60.32582 34722 ft 490 kts 65°
2026-05-05 20:07 50.67699 -60.22467 34719 ft 490 kts 65°
2026-05-05 20:07 50.69996 -60.12346 34723 ft 490 kts 65°
2026-05-05 20:08 50.72279 -60.02191 34733 ft 491 kts 65°
2026-05-05 20:08 50.74553 -59.92033 34731 ft 491 kts 65°
2026-05-05 20:09 50.76812 -59.81949 34731 ft 490 kts 65°
2026-05-05 20:09 50.79066 -59.71799 34735 ft 490 kts 66°
2026-05-05 20:10 50.81303 -59.61638 34733 ft 490 kts 66°
2026-05-05 20:10 50.83543 -59.51456 34735 ft 489 kts 66°
2026-05-05 20:11 50.85766 -59.41277 34734 ft 490 kts 66°
2026-05-05 20:11 50.87985 -59.31083 34734 ft 489 kts 66°
2026-05-05 20:12 50.90191 -59.20902 34731 ft 488 kts 67°
2026-05-05 20:12 50.92390 -59.10713 34731 ft 488 kts 67°
2026-05-05 20:13 50.94578 -59.00522 34730 ft 488 kts 67°
2026-05-05 20:13 50.96755 -58.90326 34734 ft 488 kts 67°
2026-05-05 20:14 50.98906 -58.80192 34735 ft 488 kts 68°
2026-05-05 20:14 51.01057 -58.69979 34732 ft 488 kts 68°
2026-05-05 20:15 51.03204 -58.59772 34732 ft 487 kts 68°
2026-05-05 20:15 51.05343 -58.49552 34730 ft 487 kts 68°
2026-05-05 20:16 51.07464 -58.39348 34737 ft 487 kts 68°
2026-05-05 20:16 51.09586 -58.29126 34746 ft 487 kts 68°
2026-05-05 20:17 51.11699 -58.18903 34753 ft 487 kts 69°
2026-05-05 20:17 51.13798 -58.08650 34756 ft 487 kts 69°
2026-05-05 20:18 51.15885 -57.98398 34757 ft 486 kts 69°
2026-05-05 20:18 51.17970 -57.88141 34753 ft 486 kts 69°
2026-05-05 20:19 51.20045 -57.77887 34749 ft 486 kts 69°
2026-05-05 20:19 51.22097 -57.67677 34752 ft 487 kts 70°
2026-05-05 20:20 51.24146 -57.57370 34747 ft 487 kts 70°
2026-05-05 20:20 51.26185 -57.47051 34748 ft 487 kts 70°
2026-05-05 20:21 51.28227 -57.36725 34746 ft 488 kts 70°
2026-05-05 20:21 51.30262 -57.26380 34752 ft 488 kts 70°
2026-05-05 20:22 51.32270 -57.16093 34746 ft 488 kts 70°
2026-05-05 20:22 51.34284 -57.05738 34748 ft 488 kts 70°
2026-05-05 20:23 51.36289 -56.95357 34751 ft 488 kts 70°
2026-05-05 20:23 51.38287 -56.84978 34749 ft 488 kts 70°
2026-05-05 20:24 51.40277 -56.74569 34749 ft 489 kts 71°
2026-05-05 20:24 51.42256 -56.64155 34752 ft 489 kts 71°
2026-05-05 20:25 51.44222 -56.53789 34746 ft 489 kts 71°
2026-05-05 20:25 51.46182 -56.43359 34743 ft 489 kts 71°
2026-05-05 20:26 51.48135 -56.32921 34739 ft 488 kts 71°
2026-05-05 20:26 51.50072 -56.22474 34738 ft 489 kts 71°
2026-05-05 20:27 51.52005 -56.12009 34739 ft 489 kts 71°
2026-05-05 20:27 51.53936 -56.01547 34736 ft 489 kts 72°
2026-05-05 20:28 51.55857 -55.91055 34737 ft 489 kts 72°
2026-05-05 20:28 51.57759 -55.80572 34730 ft 488 kts 72°
2026-05-05 20:29 51.59636 -55.70140 34733 ft 488 kts 72°
2026-05-05 20:29 51.61518 -55.59639 34733 ft 488 kts 72°
2026-05-05 20:30 51.63396 -55.49126 34718 ft 488 kts 72°
2026-05-05 20:30 51.65266 -55.38609 34714 ft 488 kts 72°
2026-05-05 20:31 51.67131 -55.28088 34717 ft 489 kts 72°
2026-05-05 20:31 51.68984 -55.17542 34716 ft 489 kts 72°
2026-05-05 20:32 51.70816 -55.07000 34709 ft 488 kts 73°
2026-05-05 20:32 51.72646 -54.96455 34703 ft 488 kts 73°
2026-05-05 20:33 51.74465 -54.85968 34703 ft 488 kts 73°
2026-05-05 20:33 51.76274 -54.75411 34705 ft 488 kts 73°
2026-05-05 20:34 51.78066 -54.64859 34704 ft 487 kts 73°
2026-05-05 20:34 51.79884 -54.54321 34705 ft 486 kts 69°
2026-05-05 20:35 51.82605 -54.44381 34700 ft 484 kts 63°
2026-05-05 20:35 51.85470 -54.34536 34699 ft 483 kts 63°
2026-05-05 20:36 51.88317 -54.24681 34697 ft 483 kts 63°
2026-05-05 20:36 51.91139 -54.14864 34698 ft 483 kts 63°
2026-05-05 20:37 51.93965 -54.04992 34697 ft 483 kts 63°
2026-05-05 20:37 51.96778 -53.95104 34695 ft 483 kts 64°
2026-05-05 20:38 51.99587 -53.85200 34695 ft 483 kts 63°
2026-05-05 20:38 52.02386 -53.75285 34693 ft 483 kts 64°
2026-05-05 20:39 52.05180 -53.65362 34693 ft 483 kts 64°
2026-05-05 20:39 52.07963 -53.55428 34698 ft 483 kts 64°
2026-05-05 20:40 52.10739 -53.45474 34702 ft 483 kts 64°
2026-05-05 20:40 52.13504 -53.35509 34702 ft 483 kts 64°
2026-05-05 20:41 52.16270 -53.25543 34706 ft 483 kts 65°
2026-05-05 20:41 52.19026 -53.15555 34707 ft 483 kts 65°
2026-05-05 20:42 52.21759 -53.05557 34707 ft 483 kts 65°
2026-05-05 20:42 52.24488 -52.95539 34711 ft 483 kts 65°
2026-05-05 20:43 52.27219 -52.85505 34715 ft 483 kts 65°
2026-05-05 20:43 52.29932 -52.75526 34716 ft 484 kts 66°
2026-05-05 20:44 52.32647 -52.65446 34713 ft 484 kts 66°
2026-05-05 20:44 52.35353 -52.55354 34700 ft 485 kts 66°
2026-05-05 20:45 52.39406 -52.40182 34674 ft 485 kts 66°
2026-05-05 20:45 52.42102 -52.30043 34660 ft 486 kts 66°
2026-05-05 20:46 52.44769 -52.19944 34662 ft 486 kts 66°
2026-05-05 20:46 52.47447 -52.09757 34669 ft 487 kts 66°
2026-05-05 20:47 52.50116 -51.99545 34670 ft 487 kts 66°
2026-05-05 20:47 52.52790 -51.89315 34674 ft 487 kts 67°
2026-05-05 20:48 52.55449 -51.79077 34681 ft 487 kts 67°
2026-05-05 20:48 52.58093 -51.68813 34679 ft 487 kts 67°
2026-05-05 20:49 52.60732 -51.58555 34686 ft 487 kts 67°
2026-05-05 20:49 52.63348 -51.48339 34687 ft 486 kts 67°
2026-05-05 20:50 52.65545 -51.39747 34688 ft 486 kts 68°
2026-05-05 20:50 52.68574 -51.27821 34695 ft 485 kts 68°
2026-05-05 20:51 52.71160 -51.17559 34696 ft 484 kts 68°
2026-05-05 20:51 52.73734 -51.07298 34693 ft 484 kts 68°
2026-05-05 20:52 52.76301 -50.97031 34694 ft 483 kts 68°
2026-05-05 20:52 52.78858 -50.86781 34694 ft 483 kts 68°
2026-05-05 20:53 52.81381 -50.76590 34695 ft 482 kts 69°
2026-05-05 20:53 52.83912 -50.66334 34698 ft 481 kts 69°
2026-05-05 20:54 52.86022 -50.57741 34698 ft 481 kts 69°
2026-05-05 20:54 52.88533 -50.47472 34698 ft 481 kts 69°
2026-05-05 20:55 52.91028 -50.37218 34699 ft 480 kts 69°
2026-05-05 20:55 52.93507 -50.26995 34702 ft 480 kts 69°
2026-05-05 20:56 52.95997 -50.16726 34704 ft 480 kts 69°
2026-05-05 20:56 52.98473 -50.06448 34707 ft 480 kts 69°
2026-05-05 20:57 53.00589 -49.95984 34701 ft 477 kts 78°
2026-05-05 20:57 53.02113 -49.85267 34706 ft 476 kts 78°
2026-05-05 20:58 53.03651 -49.74569 34707 ft 476 kts 78°
2026-05-05 20:58 53.05185 -49.63877 34711 ft 475 kts 78°
2026-05-05 20:59 53.06694 -49.53181 34739 ft 474 kts 79°
2026-05-05 20:59 53.08181 -49.42490 34821 ft 475 kts 79°
2026-05-05 21:00 53.09672 -49.31766 34838 ft 475 kts 79°
2026-05-05 21:00 53.11149 -49.21118 34848 ft 475 kts 79°
2026-05-05 21:01 53.12623 -49.10402 34842 ft 475 kts 78°
2026-05-05 21:01 53.14086 -48.99672 34821 ft 476 kts 78°
2026-05-05 21:02 53.15540 -48.88911 34832 ft 476 kts 78°
2026-05-05 21:02 53.16978 -48.78118 34836 ft 477 kts 78°
2026-05-05 21:03 53.18414 -48.67322 34843 ft 477 kts 78°
2026-05-05 21:03 53.19844 -48.56511 34847 ft 477 kts 78°
2026-05-05 21:04 53.21250 -48.45776 34861 ft 477 kts 78°
2026-05-05 21:04 53.22661 -48.34968 34867 ft 476 kts 78°
2026-05-05 21:05 53.24058 -48.24164 34868 ft 476 kts 79°
2026-05-05 21:05 53.25439 -48.13362 34875 ft 476 kts 79°
2026-05-05 21:06 53.26804 -48.02529 34882 ft 476 kts 79°
2026-05-05 21:06 53.28163 -47.91782 34885 ft 475 kts 79°
2026-05-05 21:07 53.29526 -47.80985 34886 ft 474 kts 79°
2026-05-05 21:07 53.30871 -47.70195 34886 ft 474 kts 79°
2026-05-05 21:08 53.32197 -47.59398 34885 ft 474 kts 80°
2026-05-05 21:08 53.33513 -47.48608 34884 ft 473 kts 80°
2026-05-05 21:09 53.34827 -47.37826 34883 ft 473 kts 80°
2026-05-05 21:09 53.36125 -47.27020 34885 ft 473 kts 80°
2026-05-05 21:10 53.37414 -47.16209 34892 ft 474 kts 80°
2026-05-05 21:10 53.38698 -47.05385 34895 ft 474 kts 80°
2026-05-05 21:11 53.39965 -46.94612 34898 ft 474 kts 81°
2026-05-05 21:11 53.41228 -46.83779 34904 ft 474 kts 81°
2026-05-05 21:12 53.42488 -46.72941 34906 ft 473 kts 81°
2026-05-05 21:12 53.43730 -46.62106 34909 ft 473 kts 81°
2026-05-05 21:13 53.44945 -46.51269 34911 ft 472 kts 81°
2026-05-05 21:13 53.46162 -46.40432 34915 ft 472 kts 81°
2026-05-05 21:14 53.47375 -46.29615 34916 ft 471 kts 81°
2026-05-05 21:14 53.48571 -46.18857 34918 ft 471 kts 82°
2026-05-05 21:15 53.49754 -46.08043 34924 ft 470 kts 82°
2026-05-05 21:15 53.50921 -45.97262 34930 ft 469 kts 82°
2026-05-05 21:16 53.52088 -45.86484 34932 ft 468 kts 82°
2026-05-05 21:16 53.53233 -45.75710 34934 ft 468 kts 82°
2026-05-05 21:17 53.54375 -45.64925 34943 ft 468 kts 82°
2026-05-05 21:17 53.55501 -45.54214 34943 ft 468 kts 82°
2026-05-05 21:18 53.56625 -45.43431 34943 ft 468 kts 82°
2026-05-05 21:18 53.57737 -45.32640 34942 ft 468 kts 82°
2026-05-05 21:19 53.58838 -45.21825 35017 ft 470 kts 83°
2026-05-05 21:19 53.59927 -45.11002 35127 ft 469 kts 83°
2026-05-05 21:20 53.61011 -45.00146 35165 ft 470 kts 83°
2026-05-05 21:20 53.62079 -44.89366 35178 ft 469 kts 83°
2026-05-05 21:21 53.63150 -44.78516 35186 ft 470 kts 83°
2026-05-05 21:21 53.64205 -44.67667 35199 ft 469 kts 83°
2026-05-05 21:22 53.65261 -44.56807 35207 ft 469 kts 83°
2026-05-05 21:22 53.66292 -44.45947 35209 ft 468 kts 84°
2026-05-05 21:23 53.67310 -44.35091 35213 ft 468 kts 84°
2026-05-05 21:23 53.68319 -44.24312 35214 ft 468 kts 84°
2026-05-05 21:24 53.69325 -44.13476 35215 ft 467 kts 84°
2026-05-05 21:24 53.70317 -44.02644 35215 ft 466 kts 84°
2026-05-05 21:25 53.71290 -43.91824 35213 ft 466 kts 84°
2026-05-05 21:25 53.72258 -43.81008 35211 ft 465 kts 84°
2026-05-05 21:26 53.73221 -43.70194 35213 ft 465 kts 84°
2026-05-05 21:26 53.74172 -43.59382 35216 ft 465 kts 84°
2026-05-05 21:27 53.75111 -43.48560 35215 ft 465 kts 84°
2026-05-05 21:27 53.76035 -43.37744 35212 ft 465 kts 84°
2026-05-05 21:28 53.76957 -43.26916 35209 ft 465 kts 84°
2026-05-05 21:28 53.77862 -43.16173 35209 ft 465 kts 84°
2026-05-05 21:29 53.78765 -43.05348 35210 ft 465 kts 85°
2026-05-05 21:29 53.79654 -42.94514 35211 ft 465 kts 85°
2026-05-05 21:30 53.80532 -42.83686 35211 ft 464 kts 85°
2026-05-05 21:30 53.81405 -42.72855 35222 ft 464 kts 85°
2026-05-05 21:31 53.82269 -42.62029 35229 ft 463 kts 85°
2026-05-05 21:31 53.83105 -42.51277 35233 ft 463 kts 85°
2026-05-05 21:32 53.83941 -42.40473 35235 ft 462 kts 86°
2026-05-05 21:32 53.84770 -42.29696 35235 ft 461 kts 86°
2026-05-05 21:33 53.85585 -42.18929 35235 ft 461 kts 86°
2026-05-05 21:33 53.86386 -42.08157 35239 ft 460 kts 86°
2026-05-05 21:34 53.87182 -41.97484 35241 ft 459 kts 86°
2026-05-05 21:34 53.87971 -41.86742 35240 ft 459 kts 86°
2026-05-05 21:35 53.88740 -41.76015 35238 ft 458 kts 86°
2026-05-05 21:35 53.89496 -41.65278 35235 ft 458 kts 86°
2026-05-05 21:36 53.90234 -41.54602 35234 ft 458 kts 86°
2026-05-05 21:36 53.90982 -41.43845 35231 ft 458 kts 86°
2026-05-05 21:37 53.91726 -41.33097 35230 ft 458 kts 86°
2026-05-05 21:37 53.92454 -41.22332 35231 ft 459 kts 87°
2026-05-05 21:38 53.93166 -41.11567 35240 ft 459 kts 87°
2026-05-05 21:38 53.93867 -41.00862 35248 ft 459 kts 87°
2026-05-05 21:39 53.94567 -40.90084 35240 ft 459 kts 87°
2026-05-05 21:39 53.95251 -40.79325 35249 ft 458 kts 87°
2026-05-05 21:40 53.95920 -40.68586 35257 ft 457 kts 87°
2026-05-05 21:40 53.96586 -40.57859 35267 ft 456 kts 87°
2026-05-05 21:41 53.97239 -40.47143 35261 ft 455 kts 88°
2026-05-05 21:41 53.97876 -40.36464 35270 ft 453 kts 88°
2026-05-05 21:42 53.98504 -40.25871 35265 ft 452 kts 88°
2026-05-05 21:42 53.99125 -40.15245 35259 ft 452 kts 88°
2026-05-05 21:43 53.99736 -40.04621 35265 ft 451 kts 88°
2026-05-05 21:43 54.00836 -39.94108 35265 ft 454 kts 80°
2026-05-05 21:44 54.02347 -39.83682 35273 ft 453 kts 80°
2026-05-05 21:44 54.03590 -39.75024 35255 ft 452 kts 80°
2026-05-05 21:45 54.05068 -39.64625 35262 ft 452 kts 80°
2026-05-05 21:45 54.06767 -39.52527 35266 ft 452 kts 80°
2026-05-05 21:46 54.07984 -39.43813 35258 ft 451 kts 80°
2026-05-05 21:46 54.09421 -39.33481 35264 ft 450 kts 80°
2026-05-05 21:47 54.10853 -39.23119 35269 ft 450 kts 81°
2026-05-05 21:47 54.12272 -39.12726 35263 ft 449 kts 81°
2026-05-05 21:48 54.13675 -39.02366 35267 ft 448 kts 81°
2026-05-05 21:48 54.15065 -38.91999 35263 ft 448 kts 81°
2026-05-05 21:49 54.16446 -38.81707 35264 ft 447 kts 81°
2026-05-05 21:49 54.17838 -38.71354 35264 ft 447 kts 81°
2026-05-05 21:50 54.19221 -38.60969 35268 ft 448 kts 81°
2026-05-05 21:50 54.20576 -38.50597 35268 ft 448 kts 81°
2026-05-05 21:51 54.21916 -38.40251 35269 ft 448 kts 81°
2026-05-05 21:51 54.23263 -38.29855 35262 ft 448 kts 81°
2026-05-05 21:52 54.25282 -38.14224 35266 ft 449 kts 81°
2026-05-05 21:53 54.26603 -38.03790 35260 ft 449 kts 82°
2026-05-05 21:53 54.27902 -37.93415 35262 ft 449 kts 82°
2026-05-05 21:54 54.29211 -37.82975 35259 ft 449 kts 82°
2026-05-05 21:54 54.30508 -37.72519 35265 ft 448 kts 82°
2026-05-05 21:55 54.31803 -37.62066 35277 ft 448 kts 82°
2026-05-05 21:55 54.33081 -37.51668 35274 ft 448 kts 82°
2026-05-05 21:56 54.34349 -37.41228 35279 ft 447 kts 82°
2026-05-05 21:56 54.35599 -37.30795 35279 ft 447 kts 82°
2026-05-05 21:57 54.36844 -37.20347 35282 ft 446 kts 82°
2026-05-05 21:57 54.38076 -37.09971 35280 ft 445 kts 82°
2026-05-05 21:58 54.39303 -36.99578 35229 ft 444 kts 82°
2026-05-05 21:58 54.40517 -36.89217 35198 ft 442 kts 82°
2026-05-05 21:59 54.41722 -36.78856 35194 ft 443 kts 82°
2026-05-05 21:59 54.42908 -36.68462 35194 ft 443 kts 82°
2026-05-05 22:00 54.44089 -36.58081 35194 ft 443 kts 82°
2026-05-05 22:00 54.45250 -36.47762 35191 ft 443 kts 83°
2026-05-05 22:01 54.46414 -36.37353 35252 ft 444 kts 82°
2026-05-05 22:01 54.47581 -36.26913 35315 ft 445 kts 82°
2026-05-05 22:02 54.48742 -36.16452 35319 ft 445 kts 82°
2026-05-05 22:02 54.49889 -36.05977 35328 ft 445 kts 83°
2026-05-05 22:03 54.51026 -35.95508 35339 ft 445 kts 83°
2026-05-05 22:03 54.52142 -35.85084 35336 ft 445 kts 83°
2026-05-05 22:04 54.53258 -35.74602 35335 ft 445 kts 83°
2026-05-05 22:04 54.54369 -35.64125 35342 ft 444 kts 83°
2026-05-05 22:05 54.55464 -35.53646 35346 ft 444 kts 83°
2026-05-05 22:05 54.56554 -35.43173 35351 ft 443 kts 83°
2026-05-05 22:06 54.57626 -35.32740 35575 ft 447 kts 83°
2026-05-05 22:06 54.58162 -35.27470 35789 ft 447 kts 83°
2026-05-05 22:06 54.58698 -35.22186 36000 ft 448 kts 83°
2026-05-05 22:06 54.59230 -35.16893 36226 ft 447 kts 83°
2026-05-05 22:07 54.59758 -35.11606 36435 ft 447 kts 83°
2026-05-05 22:07 54.60288 -35.06313 36606 ft 448 kts 83°
2026-05-05 22:07 54.60819 -35.01019 36829 ft 447 kts 83°
2026-05-05 22:07 54.61347 -34.95749 37149 ft 444 kts 83°
2026-05-05 22:08 54.61872 -34.90508 37319 ft 444 kts 83°
2026-05-05 22:08 54.62903 -34.80084 37339 ft 443 kts 83°
2026-05-05 22:09 54.63931 -34.69592 37339 ft 443 kts 83°
2026-05-05 22:09 54.64943 -34.59100 37339 ft 443 kts 83°
2026-05-05 22:10 54.65943 -34.48604 37339 ft 442 kts 83°
2026-05-05 22:10 54.66935 -34.38113 37336 ft 442 kts 83°
2026-05-05 22:11 54.67913 -34.27621 37339 ft 443 kts 83°
2026-05-05 22:11 54.68890 -34.17166 37343 ft 443 kts 83°
2026-05-05 22:12 54.69860 -34.06644 37347 ft 443 kts 83°
2026-05-05 22:12 54.70822 -33.96117 37356 ft 443 kts 83°
2026-05-05 22:13 54.71769 -33.85578 37351 ft 443 kts 83°
2026-05-05 22:13 54.72705 -33.75026 37349 ft 444 kts 83°
2026-05-05 22:14 54.73634 -33.64479 37351 ft 443 kts 83°
2026-05-05 22:14 54.74551 -33.53988 37364 ft 443 kts 83°
2026-05-05 22:15 54.75465 -33.43428 37356 ft 443 kts 83°
2026-05-05 22:15 54.76365 -33.32875 37349 ft 443 kts 83°
2026-05-05 22:16 54.77250 -33.22309 37348 ft 443 kts 83°
2026-05-05 22:16 54.78135 -33.11737 37347 ft 443 kts 83°
2026-05-05 22:17 54.79021 -33.01155 37347 ft 443 kts 83°
2026-05-05 22:17 54.79891 -32.90667 37349 ft 443 kts 83°
2026-05-05 22:18 54.80749 -32.80088 37348 ft 444 kts 83°
2026-05-05 22:18 54.81600 -32.69482 37366 ft 444 kts 83°
2026-05-05 22:19 54.82439 -32.58861 37367 ft 444 kts 83°
2026-05-05 22:19 54.83267 -32.48240 37361 ft 444 kts 83°
2026-05-05 22:20 54.84094 -32.37610 37363 ft 444 kts 83°
2026-05-05 22:20 54.84905 -32.26961 37358 ft 445 kts 83°
2026-05-05 22:21 54.85705 -32.16390 37372 ft 445 kts 83°
2026-05-05 22:21 54.86503 -32.05740 37368 ft 445 kts 84°
2026-05-05 22:22 54.87288 -31.95081 37367 ft 445 kts 83°
2026-05-05 22:22 54.88068 -31.84430 37369 ft 445 kts 83°
2026-05-05 22:23 54.88837 -31.73753 37369 ft 446 kts 83°
2026-05-05 22:23 54.89597 -31.63061 37363 ft 446 kts 83°
2026-05-05 22:24 54.90347 -31.52356 37365 ft 446 kts 83°
2026-05-05 22:24 54.91092 -31.41640 37361 ft 446 kts 83°
2026-05-05 22:25 54.91823 -31.30929 37371 ft 446 kts 83°
2026-05-05 22:25 54.92538 -31.20269 37360 ft 447 kts 83°
2026-05-05 22:26 54.93255 -31.09540 37362 ft 447 kts 83°
2026-05-05 22:26 54.93968 -30.98799 37380 ft 447 kts 83°
2026-05-05 22:27 54.94663 -30.88056 37394 ft 447 kts 83°
2026-05-05 22:27 54.95343 -30.77300 37399 ft 447 kts 83°
2026-05-05 22:28 54.96027 -30.66537 37409 ft 447 kts 83°
2026-05-05 22:28 54.96692 -30.55833 37416 ft 447 kts 83°
2026-05-05 22:29 54.97351 -30.45068 37416 ft 447 kts 83°
2026-05-05 22:29 54.98000 -30.34273 37419 ft 448 kts 83°
2026-05-05 22:30 54.98644 -30.23483 37422 ft 448 kts 83°
2026-05-05 22:30 54.99271 -30.12729 37419 ft 448 kts 83°
2026-05-05 22:31 54.99885 -30.01930 37419 ft 448 kts 81°
2026-05-05 22:31 55.01236 -29.91378 37417 ft 446 kts 73°
2026-05-05 22:32 55.02748 -29.80903 37415 ft 446 kts 73°
2026-05-05 22:32 55.04239 -29.70394 37416 ft 446 kts 74°
2026-05-05 22:33 55.05707 -29.59858 37418 ft 446 kts 73°
2026-05-05 22:33 55.07177 -29.49330 37418 ft 446 kts 74°
2026-05-05 22:34 55.08639 -29.38868 37417 ft 446 kts 73°
2026-05-05 22:34 55.10102 -29.28316 37418 ft 446 kts 74°
2026-05-05 22:35 55.11551 -29.17788 37418 ft 446 kts 74°
2026-05-05 22:35 55.12974 -29.07315 37418 ft 446 kts 74°
2026-05-05 22:36 55.14400 -28.96772 37419 ft 446 kts 74°
2026-05-05 22:36 55.15827 -28.86206 37420 ft 446 kts 74°
2026-05-05 22:37 55.17230 -28.75647 37418 ft 446 kts 74°
2026-05-05 22:37 55.18627 -28.65075 37418 ft 446 kts 74°
2026-05-05 22:38 55.20017 -28.54508 37417 ft 446 kts 73°
2026-05-05 22:38 55.21399 -28.43916 37421 ft 446 kts 74°
2026-05-05 22:39 55.22764 -28.33379 37421 ft 446 kts 74°
2026-05-05 22:39 55.24119 -28.22772 37418 ft 446 kts 74°
2026-05-05 22:40 55.25470 -28.12170 37413 ft 445 kts 74°
2026-05-05 22:40 55.26808 -28.01568 37412 ft 445 kts 74°
2026-05-05 22:41 55.28135 -27.91020 37409 ft 445 kts 73°
2026-05-05 22:41 55.29463 -27.80423 37407 ft 445 kts 73°
2026-05-05 22:42 55.30791 -27.69735 37397 ft 445 kts 74°
2026-05-05 22:42 55.32081 -27.59175 37399 ft 445 kts 74°
2026-05-05 22:43 55.33163 -27.50266 37407 ft 445 kts 74°
2026-05-05 22:43 55.34444 -27.39679 37405 ft 445 kts 74°
2026-05-05 22:44 55.35726 -27.29054 37398 ft 444 kts 74°
2026-05-05 22:44 55.36994 -27.18418 37394 ft 444 kts 74°
2026-05-05 22:45 55.38251 -27.07766 37390 ft 445 kts 74°
2026-05-05 22:45 55.39498 -26.97096 37391 ft 445 kts 74°
2026-05-05 22:46 55.40743 -26.86429 37392 ft 445 kts 74°
2026-05-05 22:46 55.41980 -26.75746 37395 ft 445 kts 74°
2026-05-05 22:47 55.43207 -26.65067 37395 ft 445 kts 74°
2026-05-05 22:47 55.44421 -26.54431 37397 ft 446 kts 74°
2026-05-05 22:48 55.45628 -26.43723 37395 ft 446 kts 74°
2026-05-05 22:48 55.46818 -26.33007 37324 ft 445 kts 74°
2026-05-05 22:49 55.47999 -26.22307 37308 ft 444 kts 74°
2026-05-05 22:49 55.49166 -26.11651 37304 ft 445 kts 74°
2026-05-05 22:50 55.50332 -26.00921 37304 ft 446 kts 75°
2026-05-05 22:50 55.51488 -25.90172 37305 ft 446 kts 75°
2026-05-05 22:51 55.52637 -25.79421 37306 ft 446 kts 75°
2026-05-05 22:51 55.53781 -25.68648 37307 ft 446 kts 75°
2026-05-05 22:52 55.54912 -25.57881 37308 ft 446 kts 75°
2026-05-05 22:52 55.56028 -25.47156 37309 ft 446 kts 75°
2026-05-05 22:53 55.57146 -25.36360 37309 ft 446 kts 75°
2026-05-05 22:53 55.58255 -25.25502 37303 ft 446 kts 75°
2026-05-05 22:54 55.59345 -25.14758 37301 ft 446 kts 75°
2026-05-05 22:54 55.60428 -25.03939 37300 ft 447 kts 75°
2026-05-05 22:55 55.61507 -24.93125 37300 ft 447 kts 75°
2026-05-05 22:55 55.62577 -24.82288 37301 ft 447 kts 75°
2026-05-05 22:56 55.63635 -24.71431 37302 ft 447 kts 76°
2026-05-05 22:56 55.64686 -24.60568 37303 ft 447 kts 76°
2026-05-05 22:57 55.65717 -24.49770 37303 ft 448 kts 76°
2026-05-05 22:57 55.66743 -24.38886 37303 ft 448 kts 76°
2026-05-05 22:58 55.67761 -24.27998 37300 ft 448 kts 76°
2026-05-05 22:58 55.68781 -24.17111 37296 ft 448 kts 76°
2026-05-05 22:59 55.69791 -24.06202 37293 ft 448 kts 76°
2026-05-05 22:59 55.70779 -23.95362 37297 ft 448 kts 76°
2026-05-05 23:00 55.72249 -23.78983 37298 ft 448 kts 76°
2026-05-05 23:00 55.73217 -23.68045 37297 ft 449 kts 77°
2026-05-05 23:01 55.74176 -23.57121 37297 ft 448 kts 77°
2026-05-05 23:01 55.75126 -23.46182 37293 ft 448 kts 77°
2026-05-05 23:02 55.76060 -23.35255 37288 ft 448 kts 77°
2026-05-05 23:02 55.76985 -23.24318 37286 ft 448 kts 77°
2026-05-05 23:03 55.77913 -23.13375 37284 ft 448 kts 77°
2026-05-05 23:03 55.78831 -23.02496 37283 ft 448 kts 77°
2026-05-05 23:04 55.79735 -22.91520 37283 ft 449 kts 77°
2026-05-05 23:04 55.80622 -22.80511 37292 ft 450 kts 77°
2026-05-05 23:05 55.81507 -22.69480 37288 ft 450 kts 77°
2026-05-05 23:05 55.82384 -22.58458 37288 ft 450 kts 77°
2026-05-05 23:06 55.83248 -22.47432 37233 ft 450 kts 77°
2026-05-05 23:06 55.84096 -22.36410 37218 ft 449 kts 77°
2026-05-05 23:07 55.84942 -22.25384 37212 ft 450 kts 77°
2026-05-05 23:07 55.85788 -22.14336 37206 ft 451 kts 77°
2026-05-05 23:08 55.86616 -22.03267 37209 ft 451 kts 77°
2026-05-05 23:08 55.87429 -21.92255 37209 ft 451 kts 78°
2026-05-05 23:09 55.88233 -21.81174 37214 ft 451 kts 78°
2026-05-05 23:09 55.89029 -21.70085 37224 ft 451 kts 78°
2026-05-05 23:10 55.89820 -21.58988 37230 ft 451 kts 78°
2026-05-05 23:10 55.90600 -21.47877 37232 ft 452 kts 78°
2026-05-05 23:11 55.91369 -21.36745 37237 ft 452 kts 78°
2026-05-05 23:11 55.92134 -21.25622 37244 ft 452 kts 78°
2026-05-05 23:12 55.92877 -21.14574 37244 ft 452 kts 78°
2026-05-05 23:12 55.93619 -21.03455 37240 ft 451 kts 78°
2026-05-05 23:13 55.94352 -20.92333 37246 ft 451 kts 78°
2026-05-05 23:13 55.95063 -20.81217 37246 ft 451 kts 79°
2026-05-05 23:14 55.95763 -20.70089 37245 ft 451 kts 79°
2026-05-05 23:14 55.96454 -20.59044 37246 ft 451 kts 78°
2026-05-05 23:15 55.97151 -20.47916 37241 ft 451 kts 78°
2026-05-05 23:15 55.97828 -20.36784 37241 ft 451 kts 79°
2026-05-05 23:16 55.98498 -20.25636 37242 ft 451 kts 79°
2026-05-05 23:16 55.99159 -20.14481 37239 ft 452 kts 79°
2026-05-05 23:17 55.99804 -20.03321 37237 ft 451 kts 79°
2026-05-05 23:17 56.00275 -19.92167 37236 ft 454 kts 82°
2026-05-05 23:18 56.00466 -19.80879 37232 ft 454 kts 84°
2026-05-05 23:18 56.00589 -19.69594 37232 ft 455 kts 84°
2026-05-05 23:19 56.00756 -19.58295 37228 ft 454 kts 83°
2026-05-05 23:19 56.00956 -19.47088 37228 ft 454 kts 83°
2026-05-05 23:20 56.01147 -19.35805 37225 ft 455 kts 84°
2026-05-05 23:20 56.01300 -19.24493 37220 ft 455 kts 84°
2026-05-05 23:21 56.01450 -19.13159 37224 ft 456 kts 84°
2026-05-05 23:21 56.01599 -19.01825 37220 ft 456 kts 84°
2026-05-05 23:22 56.01736 -18.90489 37216 ft 456 kts 85°
2026-05-05 23:22 56.01854 -18.79126 37217 ft 457 kts 85°
2026-05-05 23:23 56.01963 -18.67777 37219 ft 457 kts 85°
2026-05-05 23:23 56.02069 -18.56409 37219 ft 457 kts 85°
2026-05-05 23:24 56.02168 -18.45114 37223 ft 457 kts 85°
2026-05-05 23:24 56.02251 -18.33734 37226 ft 457 kts 86°
2026-05-05 23:25 56.02323 -18.22365 37229 ft 457 kts 86°
2026-05-05 23:25 56.02378 -18.11000 37227 ft 457 kts 86°
2026-05-05 23:26 56.02426 -17.99670 37222 ft 456 kts 86°
2026-05-05 23:26 56.02470 -17.88321 37214 ft 456 kts 86°
2026-05-05 23:27 56.02499 -17.76989 37207 ft 456 kts 86°
2026-05-05 23:27 56.02519 -17.65655 37205 ft 456 kts 86°
2026-05-05 23:28 56.02525 -17.54319 37198 ft 456 kts 86°
2026-05-05 23:28 56.02523 -17.42995 37189 ft 456 kts 87°
2026-05-05 23:29 56.02514 -17.31728 37176 ft 456 kts 87°
2026-05-05 23:29 56.02489 -17.20401 37172 ft 456 kts 87°
2026-05-05 23:30 56.02461 -17.10964 37171 ft 456 kts 87°
2026-05-05 23:30 56.02421 -16.97677 37169 ft 457 kts 88°
2026-05-05 23:31 56.02363 -16.86308 37169 ft 457 kts 88°
2026-05-05 23:31 56.02298 -16.74935 37159 ft 458 kts 88°
2026-05-05 23:32 56.02227 -16.63616 37154 ft 458 kts 88°
2026-05-05 23:32 56.02143 -16.52229 37146 ft 458 kts 88°
2026-05-05 23:33 56.02046 -16.40819 37145 ft 459 kts 88°
2026-05-05 23:33 56.01937 -16.29403 37150 ft 459 kts 89°
2026-05-05 23:34 56.01838 -16.19907 37147 ft 460 kts 89°
2026-05-05 23:34 56.01713 -16.08486 37149 ft 459 kts 89°
2026-05-05 23:35 56.01589 -15.97082 37153 ft 460 kts 89°
2026-05-05 23:35 56.01444 -15.85642 37156 ft 460 kts 89°
2026-05-05 23:36 56.01286 -15.74205 37154 ft 460 kts 89°
2026-05-05 23:36 56.01116 -15.62765 37156 ft 460 kts 89°
2026-05-05 23:37 56.00932 -15.51335 37159 ft 460 kts 89°
2026-05-05 23:37 56.00737 -15.39888 37157 ft 461 kts 90°
2026-05-05 23:38 56.00535 -15.28438 37158 ft 461 kts 90°
2026-05-05 23:38 56.00326 -15.16993 37156 ft 461 kts 90°
2026-05-05 23:39 56.00111 -15.05531 37152 ft 461 kts 90°
2026-05-05 23:39 55.99930 -14.94138 37151 ft 461 kts 89°
2026-05-05 23:40 55.99970 -14.82691 37154 ft 461 kts 87°
2026-05-05 23:40 56.00072 -14.71239 37146 ft 461 kts 88°
2026-05-05 23:41 56.00116 -14.59778 37140 ft 461 kts 88°
2026-05-05 23:41 56.00114 -14.48306 37139 ft 462 kts 89°
2026-05-05 23:42 56.00093 -14.36819 37138 ft 463 kts 89°
2026-05-05 23:42 56.00067 -14.25319 37143 ft 463 kts 89°
2026-05-05 23:43 56.00041 -14.13815 37146 ft 463 kts 89°
2026-05-05 23:43 55.99471 -14.02461 37140 ft 464 kts 104°
2026-05-05 23:44 55.97016 -13.91871 37134 ft 462 kts 123°
2026-05-05 23:44 55.93502 -13.82261 37128 ft 462 kts 124°
2026-05-05 23:45 55.89971 -13.72673 37127 ft 463 kts 124°
2026-05-05 23:45 55.86429 -13.63073 37130 ft 463 kts 124°
2026-05-05 23:46 55.82885 -13.53494 37133 ft 463 kts 124°
2026-05-05 23:46 55.79339 -13.43967 37138 ft 464 kts 124°
2026-05-05 23:47 55.75771 -13.34419 37138 ft 464 kts 124°
2026-05-05 23:47 55.72196 -13.24895 37144 ft 463 kts 124°
2026-05-05 23:48 55.68615 -13.15393 37149 ft 463 kts 124°
2026-05-05 23:48 55.65030 -13.05911 37153 ft 463 kts 125°
2026-05-05 23:49 55.61439 -12.96464 37152 ft 462 kts 125°
2026-05-05 23:49 55.57843 -12.87028 37152 ft 462 kts 125°
2026-05-05 23:50 55.54246 -12.77612 37148 ft 462 kts 125°
2026-05-05 23:50 55.50638 -12.68212 37144 ft 462 kts 125°
2026-05-05 23:51 55.47057 -12.58889 37143 ft 462 kts 125°
2026-05-05 23:51 55.43441 -12.49520 37143 ft 463 kts 126°
2026-05-05 23:52 55.39801 -12.40164 37143 ft 462 kts 126°
2026-05-05 23:52 55.36167 -12.30836 37143 ft 462 kts 126°
2026-05-05 23:53 55.32527 -12.21535 37142 ft 462 kts 126°
2026-05-05 23:53 55.28877 -12.12263 37141 ft 462 kts 126°
2026-05-05 23:54 55.25219 -12.02987 37139 ft 462 kts 126°
2026-05-05 23:54 55.21584 -11.93801 37139 ft 461 kts 126°
2026-05-05 23:55 55.17920 -11.84578 37141 ft 461 kts 126°
2026-05-05 23:55 55.14256 -11.75374 37142 ft 461 kts 126°
2026-05-05 23:56 55.10585 -11.66188 37141 ft 461 kts 126°
2026-05-05 23:56 55.06903 -11.57032 37142 ft 461 kts 127°
2026-05-05 23:57 55.03211 -11.47878 37140 ft 460 kts 127°
2026-05-05 23:57 54.99522 -11.38765 37139 ft 460 kts 127°
2026-05-05 23:58 54.95847 -11.29710 37140 ft 460 kts 127°
2026-05-05 23:58 54.92139 -11.20619 37141 ft 461 kts 127°
2026-05-05 23:59 54.88424 -11.11526 37144 ft 461 kts 127°
2026-05-05 23:59 54.84731 -11.02525 37143 ft 461 kts 127°
2026-05-06 00:00 54.80998 -10.93475 37140 ft 461 kts 127°
2026-05-06 00:00 54.77258 -10.84448 37139 ft 461 kts 127°
2026-05-06 00:01 54.73516 -10.75436 37142 ft 460 kts 127°
2026-05-06 00:01 54.69785 -10.66461 37145 ft 459 kts 127°
2026-05-06 00:02 54.66075 -10.57580 37143 ft 458 kts 127°
2026-05-06 00:02 54.62340 -10.48655 37142 ft 457 kts 127°
2026-05-06 00:03 54.58609 -10.39779 37144 ft 457 kts 127°
2026-05-06 00:03 54.54869 -10.30921 37144 ft 456 kts 127°
2026-05-06 00:04 54.51128 -10.22098 37143 ft 456 kts 128°
2026-05-06 00:04 54.47509 -10.13236 37141 ft 456 kts 120°
2026-05-06 00:05 54.45148 -10.03124 37137 ft 457 kts 107°
2026-05-06 00:05 54.44226 -9.97891 37137 ft 457 kts 107°
2026-05-06 00:06 54.42354 -9.87443 37137 ft 457 kts 108°
2026-05-06 00:06 54.40465 -9.77023 37134 ft 457 kts 108°
2026-05-06 00:07 54.38563 -9.66607 37135 ft 457 kts 108°
2026-05-06 00:07 54.36674 -9.56281 37133 ft 457 kts 108°
2026-05-06 00:08 54.34762 -9.45883 37127 ft 458 kts 108°
2026-05-06 00:08 54.32839 -9.35480 37129 ft 458 kts 108°
2026-05-06 00:09 54.30896 -9.25073 37130 ft 458 kts 108°
2026-05-06 00:09 54.28958 -9.14699 37134 ft 458 kts 108°
2026-05-06 00:10 54.27020 -9.04382 37132 ft 458 kts 108°
2026-05-06 00:10 54.25056 -8.94007 37130 ft 458 kts 109°
2026-05-06 00:11 54.23084 -8.83649 37126 ft 458 kts 109°
2026-05-06 00:11 54.21102 -8.73284 37125 ft 459 kts 109°
2026-05-06 00:12 54.19123 -8.62995 37126 ft 459 kts 109°
2026-05-06 00:12 54.17119 -8.52645 37125 ft 458 kts 109°
2026-05-06 00:13 54.15114 -8.42323 37126 ft 458 kts 109°
2026-05-06 00:13 54.13102 -8.32009 37125 ft 458 kts 109°
2026-05-06 00:14 54.11080 -8.21693 37127 ft 458 kts 109°
2026-05-06 00:14 54.09061 -8.11466 37123 ft 458 kts 109°
2026-05-06 00:15 54.07018 -8.01188 37125 ft 458 kts 109°
2026-05-06 00:15 54.04966 -7.90912 37124 ft 458 kts 109°
2026-05-06 00:16 54.02906 -7.80658 37128 ft 458 kts 110°
2026-05-06 00:16 54.00835 -7.70417 37126 ft 458 kts 110°